TIANMU-1 11

Last updated on Sat Aug 15 2026 00:02:41 GMT+0000 (Coordinated Universal Time)

1 58645U 23205A 26226.62704274 .00002801 00000+0 10670-3 0 9997 2 58645 97.3441 247.2859 0009763 146.9312 213.2540 15.27511676146443
UTC large
Height (km)
Speed (km/s)
/
Latitude / Longitude
Inclination (degrees)
Orbital Period (minutes)
Azimuth
Elevation
Range (km)
Doppler Factor

Next 0 passes for location: London (51.5072 / 0.1276)

No passes found over London.
TIANMU-1 11